Location: *
(50.9167°S, 179.4000°W)
Time: 20:51:40
(UTC+00:00)

NOSS 3-1 (C) - Pass Details

Date: 03 March 2024
Orbit: 653 x 1553 km, 63.4° (Epoch: 14 April)

Event Time Altitude Azimuth Distance (km) Brightness Sun altitude
Rises 12:33:56 0° 229° (SW) 4,190 7.2 -32.3°
Reaches altitude 10° 12:37:07 10° 224° (SW) 3,076 6.5 -32.3°
Maximum altitude 12:44:05 48° 150° (SSE) 1,254 4.3 -32.1°
Enters shadow 12:46:38 31° 94° (E) 1,554 4.6 -32.0°
